Weather History for Shawano, WI

Change the Weather History Date:

Saturday, March 16, 2013

  Actual Average (KGRB) Record (KGRB)
Temperature  
Mean Temperature 26 °F 31 °F  
Max Temperature 32 °F 39 °F 70 °F (1927)
Min Temperature 19 °F 22 °F -12 °F (1997)
Degree Days  
Heating Degree Days 40 34  
Month to date heating degree days 597  
Since 1 July heating degree days 6437  
Cooling Degree Days 0 0  
Month to date cooling degree days 0  
Year to date cooling degree days 0  
Moisture  
Dew Point 14 °F    
Average Humidity 63    
Maximum Humidity 86    
Minimum Humidity 44    
Precipitation  
Precipitation 0.00 in 0.06 in 0.69 in (1982)
Month to date precipitation 0.90  
Year to date precipitation 3.14  
Snow  
Snow 0.00 in 0.30 in 1.80 in (1917)
Month to date snowfall 5.1  
Since 1 July snowfall 45.3  
Snow Depth -    
Sea Level Pressure  
Sea Level Pressure 29.98 in    
Wind  
Wind Speed 9 mph (NNW)    
Max Wind Speed 13 mph    
Max Gust Speed 18 mph    
Visibility 8 miles    
Events Snow    
T = Trace of Precipitation, MM = Missing Value Source: NWS Daily Summary

Daily Weather History Graph

Daily Weather History Graph

Search for Another Location

Airport:

Trip Planner

Search our weather history database for the weather conditions in past years. The results will help you decide how hot, cold, wet, or windy it might be!

Date:

Astronomy

Mar. 16, 2013 Rise Set
Actual Time 7:04 AM CDT 7:01 PM CDT
Civil Twilight 6:35 AM CDT 7:31 PM CDT
Nautical Twilight 6:01 AM CDT 8:05 PM CDT
Astronomical Twilight 5:26 AM CDT 8:40 PM CDT
Moon 9:21 AM CDT (3/16) No Moon Set
Length of Visible Light 12h 55m
Length of Day
11h 57m
Waxing Crescent, 23% of the Moon is Illuminated
Mar 16
Waxing Crescent
Mar 19
First Quarter
Mar 27
Full
Apr 2
Last Quarter
Apr 10
New

Hourly Weather History & Observations

Time (CDT) Temp. Windchill Dew Point Humidity Pressure Visibility Wind Dir Wind Speed Gust Speed Precip Events Conditions
12:15 AM 23.0 °F 11.7 °F 19.4 °F 86% 29.93 in 1.5 mi ENE 11.5 mph - N/A Snow Light Snow
12:35 AM 21.2 °F 10.9 °F 17.6 °F 86% 29.94 in 1.2 mi NE 9.2 mph - N/A Snow Light Snow
12:55 AM 21.2 °F 10.1 °F 17.6 °F 86% 29.93 in 1.8 mi NE 10.4 mph - N/A Snow Light Snow
1:15 AM 21.2 °F 10.1 °F 17.6 °F 86% 29.92 in 1.0 mi ENE 10.4 mph 16.1 mph N/A Snow Light Snow
1:35 AM 21.2 °F 10.1 °F 17.6 °F 86% 29.91 in 1.0 mi NE 10.4 mph - N/A Snow Light Snow
1:55 AM 21.2 °F 9.5 °F 17.6 °F 86% 29.91 in 1.2 mi ENE 11.5 mph - N/A Snow Light Snow
2:15 AM 21.2 °F 10.9 °F 17.6 °F 86% 29.91 in 3.0 mi NE 9.2 mph - N/A Snow Light Snow
2:35 AM 21.2 °F 8.9 °F 17.6 °F 86% 29.91 in 4.0 mi NE 12.7 mph - N/A Snow Light Snow
3:15 AM 21.2 °F 10.1 °F 15.8 °F 80% 29.91 in 5.0 mi NNE 10.4 mph 17.3 mph N/A Snow Light Snow
3:35 AM 21.2 °F 10.9 °F 14.0 °F 74% 29.90 in 10.0 mi NE 9.2 mph - N/A Snow Light Snow
3:55 AM 21.2 °F 8.9 °F 14.0 °F 74% 29.92 in 5.0 mi NNE 12.7 mph - N/A Snow Light Snow
4:15 AM 19.4 °F 7.2 °F 14.0 °F 80% 29.91 in 3.0 mi NNE 11.5 mph - N/A Snow Light Snow
4:35 AM 19.4 °F 7.9 °F 14.0 °F 80% 29.92 in 2.5 mi NNE 10.4 mph - N/A Snow Light Snow
4:55 AM 19.4 °F 8.6 °F 14.0 °F 80% 29.92 in 7.0 mi NNE 9.2 mph - N/A Snow Light Snow
5:15 AM 19.4 °F 9.5 °F 14.0 °F 80% 29.92 in 10.0 mi NE 8.1 mph - N/A   Overcast
5:35 AM 19.4 °F 7.2 °F 14.0 °F 80% 29.92 in 10.0 mi NNE 11.5 mph - N/A   Overcast
5:55 AM 19.4 °F 7.2 °F 14.0 °F 80% 29.93 in 10.0 mi NNE 11.5 mph - N/A   Overcast
6:15 AM 19.4 °F 7.2 °F 14.0 °F 80% 29.93 in 10.0 mi NNE 11.5 mph - N/A Snow Light Snow
6:35 AM 19.4 °F 10.4 °F 14.0 °F 80% 29.95 in 10.0 mi NNE 6.9 mph - N/A Snow Light Snow
6:55 AM 19.4 °F 7.2 °F 14.0 °F 80% 29.96 in 10.0 mi NNE 11.5 mph - N/A Snow Light Snow
7:15 AM 19.4 °F 9.5 °F 14.0 °F 80% 29.96 in 7.0 mi North 8.1 mph - N/A Snow Light Snow
7:35 AM 19.4 °F 10.4 °F 14.0 °F 80% 29.97 in 7.0 mi North 6.9 mph - N/A Snow Light Snow
7:55 AM 19.4 °F 9.5 °F 14.0 °F 80% 29.98 in 7.0 mi North 8.1 mph - N/A Snow Light Snow
8:15 AM 19.4 °F 10.4 °F 14.0 °F 80% 29.98 in 7.0 mi North 6.9 mph - N/A Snow Light Snow
8:35 AM 21.2 °F 10.9 °F 14.0 °F 74% 29.99 in 5.0 mi North 9.2 mph - N/A Snow Light Snow
8:55 AM 21.2 °F 11.7 °F 14.0 °F 74% 30.00 in 7.0 mi North 8.1 mph - N/A Snow Light Snow
9:15 AM 21.2 °F 13.6 °F 14.0 °F 74% 30.01 in 10.0 mi North 5.8 mph - N/A Snow Light Snow
9:35 AM 21.2 °F 13.6 °F 14.0 °F 74% 30.01 in 10.0 mi North 5.8 mph - N/A   Overcast
9:55 AM 21.2 °F 11.7 °F 12.2 °F 68% 30.01 in 10.0 mi North 8.1 mph - N/A   Scattered Clouds
10:15 AM 23.0 °F 15.8 °F 12.2 °F 63% 30.01 in 10.0 mi North 5.8 mph - N/A   Clear
10:35 AM 24.8 °F 17.9 °F 14.0 °F 64% 30.01 in 10.0 mi North 5.8 mph - N/A   Mostly Cloudy
10:55 AM 24.8 °F 20.5 °F 12.2 °F 59% 30.01 in 10.0 mi NE 3.5 mph - N/A   Overcast
11:15 AM 26.6 °F 21.2 °F 12.2 °F 55% 30.01 in 10.0 mi NE 4.6 mph - N/A   Mostly Cloudy
11:35 AM 28.4 °F 24.6 °F 12.2 °F 51% 30.01 in 10.0 mi ENE 3.5 mph - N/A   Mostly Cloudy
12:15 PM 30.2 °F - 12.2 °F 47% 30.02 in 10.0 mi Calm Calm - N/A   Scattered Clouds
12:35 PM 30.2 °F - 12.2 °F 47% 30.02 in 10.0 mi Calm Calm - N/A   Scattered Clouds
12:55 PM 30.2 °F - 12.2 °F 47% 30.01 in 10.0 mi Calm Calm - N/A   Mostly Cloudy
1:15 PM 30.2 °F 22.6 °F 12.2 °F 47% 30.01 in 10.0 mi West 8.1 mph - N/A   Mostly Cloudy
1:55 PM 30.2 °F 25.4 °F 12.2 °F 47% 29.99 in 10.0 mi West 4.6 mph - N/A   Mostly Cloudy
2:15 PM 30.2 °F 23.4 °F 12.2 °F 47% 29.99 in 10.0 mi WSW 6.9 mph - N/A   Scattered Clouds
2:35 PM 30.2 °F 23.4 °F 12.2 °F 47% 29.98 in 10.0 mi SW 6.9 mph - N/A   Scattered Clouds
2:55 PM 32.0 °F 27.5 °F 12.2 °F 44% 29.98 in 10.0 mi WSW 4.6 mph - N/A   Scattered Clouds
3:15 PM 32.0 °F 23.0 °F 12.2 °F 44% 29.98 in 10.0 mi West 11.5 mph - N/A   Scattered Clouds
3:35 PM 32.0 °F 23.0 °F 12.2 °F 44% 29.98 in 10.0 mi West 11.5 mph - N/A   Clear
3:55 PM 32.0 °F 23.0 °F 12.2 °F 44% 29.99 in 10.0 mi West 11.5 mph 17.3 mph N/A   Clear
4:15 PM 32.0 °F 23.6 °F 12.2 °F 44% 29.98 in 10.0 mi NW 10.4 mph - N/A   Clear
4:35 PM 32.0 °F 23.6 °F 12.2 °F 44% 29.98 in 10.0 mi West 10.4 mph 18.4 mph N/A   Scattered Clouds
5:15 PM 32.0 °F 24.8 °F 12.2 °F 44% 29.98 in 10.0 mi WNW 8.1 mph - N/A   Clear
5:35 PM 32.0 °F 25.6 °F 12.2 °F 44% 29.97 in 10.0 mi West 6.9 mph - N/A   Clear
5:55 PM 30.2 °F 21.9 °F 12.2 °F 47% 29.97 in 10.0 mi West 9.2 mph - N/A   Clear
6:15 PM 30.2 °F 22.6 °F 12.2 °F 47% 29.97 in 10.0 mi West 8.1 mph 17.3 mph N/A   Clear
6:35 PM 30.2 °F 22.6 °F 12.2 °F 47% 29.97 in 10.0 mi West 8.1 mph - N/A   Clear
6:55 PM 28.4 °F 22.2 °F 12.2 °F 51% 29.97 in 10.0 mi West 5.8 mph - N/A   Clear
7:15 PM 28.4 °F 20.4 °F 12.2 °F 51% 29.97 in 10.0 mi West 8.1 mph - N/A   Scattered Clouds
7:35 PM 28.4 °F 22.2 °F 14.0 °F 55% 29.98 in 10.0 mi West 5.8 mph - N/A   Mostly Cloudy
7:55 PM 28.4 °F 22.2 °F 14.0 °F 55% 30.00 in 10.0 mi West 5.8 mph - N/A   Scattered Clouds
8:35 PM 28.4 °F 23.3 °F 14.0 °F 55% 30.03 in 10.0 mi West 4.6 mph - N/A   Scattered Clouds
8:55 PM 28.4 °F 23.3 °F 14.0 °F 55% 30.04 in 10.0 mi West 4.6 mph - N/A   Overcast
9:15 PM 28.4 °F 22.2 °F 14.0 °F 55% 30.06 in 10.0 mi West 5.8 mph - N/A   Overcast
9:35 PM 26.6 °F 19.1 °F 12.2 °F 55% 30.07 in 10.0 mi West 6.9 mph - N/A   Overcast
9:55 PM 26.6 °F 19.1 °F 12.2 °F 55% 30.08 in 10.0 mi West 6.9 mph - N/A   Overcast
10:15 PM 26.6 °F 21.2 °F 12.2 °F 55% 30.08 in 10.0 mi West 4.6 mph - N/A   Mostly Cloudy
10:35 PM 26.6 °F 22.6 °F 12.2 °F 55% 30.08 in 10.0 mi WNW 3.5 mph - N/A   Clear
10:55 PM 24.8 °F 19.1 °F 12.2 °F 59% 30.09 in 10.0 mi WNW 4.6 mph - N/A   Mostly Cloudy
11:15 PM 26.6 °F 21.2 °F 10.4 °F 51% 30.09 in 10.0 mi NW 4.6 mph - N/A   Overcast
11:35 PM 26.6 °F 21.2 °F 10.4 °F 51% 30.09 in 10.0 mi WNW 4.6 mph - N/A   Mostly Cloudy
11:55 PM 26.6 °F 19.1 °F 10.4 °F 51% 30.09 in 10.0 mi NW 6.9 mph - N/A   Mostly Cloudy